DELTA 1 DEB, 13524

Orbit data source: Space-Track

DELTA 1 DEB, 13524 is space debris in SSO originally from a launch on Tue, 06 Nov 1973 UTC launched from the Air Force Western Test Range (AFWTR). Debris objects in space refer to the collection of defunct objects orbiting the Earth. Examples of debris include non-operational satellites, rocket bodies, and fragments generated from explosions, collisions, or faulty payload assembly.

Loading next visibility...
Identifier
13524, 1973-086GM
Orbit
SSO
Country
Flag of USUS
Related business
Manufacturer
Unknown
Mission
Spacecraft
Bus & Motor
Unknown
Mass
Unknown
Launch date (UTC)
1973-11-06 (53 years ago)
Launch vehicle
Unknown
Launch site
Air Force Western Test Range (AFWTR)
Object type
Payload
Rocket body
Debris
Shape & HBR
Unknown shape, 1.1 m
Radar Cross Section
Medium (>0.1 m² and <1 m²)

Expand to show TLE details & history
Last TLE update: 2 days ago

TLE from 2 days ago
0 DELTA 1 DEB
1 13524U 73086GM  26205.53414304  .00000099  00000-0  10052-2 0  9996
2 13524 102.8706 217.1957 0042870 345.2432 169.8421 12.48402365 81394
Epoch: 2026-07-24T12:49Z
TLE epoch observation values (Epoch: 2026-07-24T12:49:09.958Z)
Latitude
24.18979°
Longitude
-91.49291°
Altitude
1,506.893 km
Speed
7.098 km/s
True Right ascension
02h 52m 13s
True Declination
24° 04' 25"
Sunlit
Object was in daylight at epoch
Visualization orbit readout
Latitude
Unknown
Longitude
Unknown
Altitude
Unknown
Speed
Unknown
Apparent Right ascension
Unknown
Apparent Declination
Unknown
Sunlit
N/A
Visualization observer readout
Local Sidereal Time
23:19:23
Azimuth
Unknown
Elevation
Unknown
Doppler factor
Unknown
Orbital elements
Apogee altitude
1,502.442 km
Perigee altitude
1,435.162 km
Semi-major axis
7,846.939 km
Eccentricity
0.00429
Inclination
102.8706°
RAAN
217.1957°
Arg. of periapsis
345.2432°
True anomaly
169.92828°
Mean anomaly
169.8421°
Eccentric anomaly
169.88524°
Mean motion
3.12243 °/min
Orbital period
115.29 mins
BSTAR
0.0010052
Loading maneuver chart data...
Computing Atmospheric mass density...
Loading historical data...
Loading historical data...
Loading historical data...
Loading historical data...
Loading historical data...
Loading historical data...
Loading historical data...

Documentation

Showing up to 5 results
|